User: anonymous   Login
Location: Street
(51.1247°N, 2.7429°W)
Time: 04:53:57
(UTC+01:00)
Language:

Altair - Orbit

View from above orbital plane
View from above orbital plane
View from above satellite
View from above satellite

Ground track
Ground track

The orbit data is extracted from the following two-line orbital elements,

1 00050U 60009B   21138.45775682 -.00000083  00000-0  11649-4 0  9996
2 00050  47.2296 161.5277 0114561 244.2450 114.6479 12.20117142711120
Epoch (UTC): 18 May 2021 10:59:10
Eccentricity: 0.0114561
inclination: 47.2296°
perigee height: 1501 km
apogee height: 1683 km
right ascension of ascending node: 161.5277°
argument of perigee: 244.2450°
revolutions per day: 12.20117142
mean anomaly at epoch: 114.6479°
orbit number at epoch: 71112

The dashed part of the orbit path shows where the satellite is in the earth's shadow,  

DLR